Flag for USA

Past Weather in Oklahoma City, Oklahoma, USA — Yesterday and Last 2 Weeks

Now
78 °F

Partly cloudy.


Feels Like: 80 °F
Forecast: 99 / 77 °F
Wind: 9 mph from South

Location: Will Rogers World Airport

Current Time: Jul 10, 2020 at 5:52:29 am

Latest Report: Jul 10, 2020 at 4:52 am


Visibility: 10 mi

Pressure: 29.90 "Hg

Humidity: 79%

Dew Point: 71 °F

Location of Oklahoma CityLocation

Past Weather in Oklahoma City — Graph

°F

Oklahoma City Temperature Yesterday

Maximum temperature yesterday: 89 °F (at 2:52 pm)
Minimum temperature yesterday: 76 °F (at 4:52 am)
Average temperature yesterday: 83 °F

High & Low Weather Summary for the Past Weeks

 TemperatureHumidityPressure
High95 °F (Jul 3, 4:52 pm)97% (Jun 26, 7:15 am)30.02 "Hg (Jun 26, 7:15 am)
Low65 °F (Jun 25, 4:52 am)27% (Jul 2, 12:52 pm)29.62 "Hg (Jun 28, 8:52 pm)
Average81 °F71%29.84 "Hg
* Reported Jun 25 3:52 am — Jul 10 3:52 am, Oklahoma City. Weather by CustomWeather, © 2020

Note: Actual official high and low records may vary slightly from our data, if they occured in-between our weather recording intervals... More about our weather records

Oklahoma City Weather History for the Previous 24 Hours

Scroll right to see more
 ConditionsComfort  
Time TempWeatherWind HumidityBarometerVisibility
3:52 am
Fri, Jul 10
78 °FPassing clouds.9 mph82%29.89 "Hg10 mi
2:52 am78 °FPassing clouds.9 mph84%29.90 "Hg10 mi
1:52 am78 °FPassing clouds.8 mph87%29.90 "Hg10 mi
12:52 am79 °FPartly cloudy.12 mph84%29.89 "Hg10 mi
11:52 pm
Thu, Jul 9
81 °FPassing clouds.9 mph79%29.88 "Hg10 mi
10:52 pm81 °FPassing clouds.13 mph79%29.85 "Hg10 mi
9:52 pm82 °FPassing clouds.14 mph74%29.85 "Hg10 mi
8:52 pm83 °FPassing clouds.15 mph68%29.82 "Hg10 mi
7:52 pm84 °FPassing clouds.18 mph65%29.82 "Hg10 mi
6:52 pm85 °FBroken clouds.22 mph65%29.82 "Hg10 mi
5:52 pm87 °FBroken clouds.16 mph61%29.82 "Hg10 mi
4:52 pm89 °FScattered clouds.22 mph61%29.80 "Hg10 mi
3:52 pm88 °FBroken clouds.21 mph61%29.80 "Hg10 mi
2:52 pm89 °FBroken clouds.18 mph61%29.80 "Hg10 mi
1:52 pm88 °FScattered clouds.18 mph59%29.81 "Hg10 mi
12:52 pm85 °FScattered clouds.21 mph63%29.82 "Hg10 mi
11:52 am83 °FBroken clouds.21 mph68%29.85 "Hg10 mi
10:52 am86 °FPartly sunny.15 mph65%29.84 "Hg10 mi
9:52 am87 °FScattered clouds.7 mph59%29.83 "Hg10 mi
8:52 am83 °FScattered clouds.7 mph68%29.80 "Hg10 mi
7:52 am79 °FPassing clouds.12 mph77%29.77 "Hg10 mi
6:52 am76 °FSunny.9 mph85%29.75 "Hg8 mi
5:52 am76 °FClear.12 mph88%29.74 "Hg9 mi
Weather by CustomWeather, © 2020

See weather overview